Time,TemperatureF,DewpointF,PressureIn,WindDirection,WindDirectionDegrees,WindSpeedMPH,WindSpeedGustMPH,Humidity,HourlyPrecipIn,Conditions,Clouds,dailyrainin,SolarRadiationWatts/m^2,SoftwareType,DateUTC
2013-01-27 00:01:00,63.0,62.0,-100.00,SSW,198,0.0,0.0,98,0.00,,,0.03,0.000000,,2013-01-27 10:01:00,
2013-01-27 00:11:00,63.0,62.0,-100.00,SSW,198,0.0,0.0,98,0.00,,,0.03,0.000000,,2013-01-27 10:11:00,
2013-01-27 00:21:00,63.0,62.0,-100.00,SSW,198,0.0,0.0,98,0.00,,,0.03,0.000000,,2013-01-27 10:21:00,
2013-01-27 00:31:00,63.0,62.0,-100.00,SSW,198,0.0,0.0,98,0.00,,,0.03,0.000000,,2013-01-27 10:31:00,
2013-01-27 00:52:00,62.0,61.0,-100.00,South,186,0.0,0.0,98,0.00,,,0.03,0.000000,,2013-01-27 10:52:00,
2013-01-27 01:01:00,62.0,61.0,-100.00,South,186,0.0,0.0,98,0.00,,,0.03,0.000000,,2013-01-27 11:01:00,
2013-01-27 01:11:00,62.0,61.0,-100.00,South,186,0.0,0.0,98,0.00,,,0.03,0.000000,,2013-01-27 11:11:00,
2013-01-27 01:21:00,62.0,61.0,-100.00,South,186,0.0,0.0,98,0.00,,,0.03,0.000000,,2013-01-27 11:21:00,
2013-01-27 01:32:00,62.0,61.0,-100.00,South,186,0.0,0.0,98,0.00,,,0.03,0.000000,,2013-01-27 11:32:00,
2013-01-27 01:52:00,63.0,62.0,-100.00,SW,216,0.0,0.0,98,0.00,,,0.03,0.000000,,2013-01-27 11:52:00,
2013-01-27 02:02:00,63.0,62.0,-100.00,SW,216,0.0,0.0,98,0.00,,,0.03,0.000000,,2013-01-27 12:02:00,
2013-01-27 02:11:00,63.0,62.0,-100.00,SW,216,0.0,0.0,98,0.00,,,0.03,0.000000,,2013-01-27 12:11:00,
2013-01-27 02:21:00,63.0,62.0,-100.00,SW,216,0.0,0.0,98,0.00,,,0.03,0.000000,,2013-01-27 12:21:00,
2013-01-27 02:32:00,63.0,62.0,-100.00,SW,216,0.0,0.0,98,0.00,,,0.03,0.000000,,2013-01-27 12:32:00,
2013-01-27 03:02:00,63.0,62.0,-100.00,SW,219,0.0,0.0,98,0.00,,,0.03,0.000000,,2013-01-27 13:02:00,
2013-01-27 03:11:00,63.0,62.0,-100.00,SW,219,0.0,0.0,98,0.00,,,0.03,0.000000,,2013-01-27 13:11:00,
2013-01-27 03:22:00,63.0,62.0,-100.00,SW,219,0.0,0.0,98,0.00,,,0.03,0.000000,,2013-01-27 13:22:00,
2013-01-27 03:31:00,63.0,62.0,-100.00,SW,219,0.0,0.0,98,0.00,,,0.03,0.000000,,2013-01-27 13:31:00,
2013-01-27 03:52:00,63.0,63.0,-100.00,SSW,201,0.0,0.0,99,0.00,,,0.03,0.000000,,2013-01-27 13:52:00,
2013-01-27 04:01:00,63.0,63.0,-100.00,SSW,201,0.0,0.0,99,0.00,,,0.03,0.000000,,2013-01-27 14:01:00,
2013-01-27 04:11:00,63.0,63.0,-100.00,SSW,201,0.0,0.0,99,0.00,,,0.03,0.000000,,2013-01-27 14:11:00,
2013-01-27 04:21:00,63.0,63.0,-100.00,SSW,201,0.0,0.0,99,0.00,,,0.03,0.000000,,2013-01-27 14:21:00,
2013-01-27 04:31:00,63.0,63.0,-100.00,SSW,201,0.0,0.0,99,0.00,,,0.03,0.000000,,2013-01-27 14:31:00,
2013-01-27 05:11:00,62.0,62.0,-100.00,SW,232,0.0,0.0,99,0.00,,,0.03,0.000000,,2013-01-27 15:11:00,
2013-01-27 05:21:00,62.0,62.0,-100.00,SW,232,0.0,0.0,99,0.00,,,0.03,0.000000,,2013-01-27 15:21:00,
2013-01-27 05:32:00,62.0,62.0,-100.00,SW,232,0.0,0.0,99,0.00,,,0.03,0.000000,,2013-01-27 15:32:00,
2013-01-27 05:53:00,62.0,61.0,-100.00,SSW,193,0.0,0.0,98,0.00,,,0.03,0.000000,,2013-01-27 15:53:00,
2013-01-27 06:02:00,62.0,61.0,-100.00,SSW,193,0.0,0.0,98,0.00,,,0.03,0.000000,,2013-01-27 16:02:00,
2013-01-27 06:11:00,62.0,61.0,-100.00,SSW,193,0.0,0.0,98,0.00,,,0.03,0.000000,,2013-01-27 16:11:00,
2013-01-27 06:21:00,62.0,61.0,-100.00,SSW,193,0.0,0.0,98,0.00,,,0.03,0.000000,,2013-01-27 16:21:00,
2013-01-27 06:32:00,62.0,61.0,-100.00,SSW,193,0.0,0.0,98,0.00,,,0.03,0.000000,,2013-01-27 16:32:00,
2013-01-27 07:01:00,63.0,62.0,-100.00,SSW,211,0.0,0.0,98,0.00,,,0.03,0.000000,,2013-01-27 17:01:00,
2013-01-27 07:12:00,63.0,62.0,-100.00,SSW,211,0.0,0.0,98,0.00,,,0.03,0.000000,,2013-01-27 17:12:00,
2013-01-27 07:21:00,63.0,62.0,-100.00,SSW,211,0.0,0.0,98,0.00,,,0.03,0.000000,,2013-01-27 17:21:00,
2013-01-27 07:32:00,63.0,62.0,-100.00,SSW,211,0.0,0.0,98,0.00,,,0.03,0.000000,,2013-01-27 17:32:00,
2013-01-27 07:52:00,63.0,62.0,-100.00,SSW,199,0.0,0.0,97,0.00,,,0.03,0.000000,,2013-01-27 17:52:00,
2013-01-27 08:02:00,63.0,62.0,-100.00,SSW,199,0.0,0.0,97,0.00,,,0.03,0.000000,,2013-01-27 18:02:00,
2013-01-27 08:11:00,63.0,62.0,-100.00,SSW,199,0.0,0.0,97,0.00,,,0.03,0.000000,,2013-01-27 18:11:00,
2013-01-27 08:22:00,63.0,62.0,-100.00,SSW,199,0.0,0.0,97,0.00,,,0.03,0.000000,,2013-01-27 18:22:00,
2013-01-27 08:31:00,63.0,62.0,-100.00,SSW,199,0.0,0.0,97,0.00,,,0.03,0.000000,,2013-01-27 18:31:00,
2013-01-27 09:02:00,63.0,61.0,-100.00,SSW,209,0.0,0.0,93,0.00,,,0.03,0.000000,,2013-01-27 19:02:00,
2013-01-27 09:11:00,63.0,61.0,-100.00,SSW,209,0.0,0.0,93,0.00,,,0.03,0.000000,,2013-01-27 19:11:00,
2013-01-27 09:21:00,63.0,61.0,-100.00,SSW,209,0.0,0.0,93,0.00,,,0.03,0.000000,,2013-01-27 19:21:00,
2013-01-27 09:32:00,63.0,61.0,-100.00,SSW,209,0.0,0.0,93,0.00,,,0.03,0.000000,,2013-01-27 19:32:00,
2013-01-27 09:52:00,63.0,62.0,-100.00,SW,222,0.0,0.0,96,0.02,,,0.05,0.000000,,2013-01-27 19:52:00,
2013-01-27 10:02:00,63.0,62.0,-100.00,SW,222,0.0,0.0,96,0.02,,,0.05,0.000000,,2013-01-27 20:02:00,
2013-01-27 10:11:00,63.0,62.0,-100.00,SW,222,0.0,0.0,96,0.02,,,0.05,0.000000,,2013-01-27 20:11:00,
2013-01-27 10:22:00,63.0,62.0,-100.00,SW,222,0.0,0.0,96,0.02,,,0.05,0.000000,,2013-01-27 20:22:00,
2013-01-27 10:32:00,63.0,62.0,-100.00,SW,222,0.0,0.0,96,0.02,,,0.05,0.000000,,2013-01-27 20:32:00,
2013-01-27 11:02:00,64.0,63.0,-100.00,SSW,208,0.0,0.0,95,0.00,,,0.05,0.000000,,2013-01-27 21:02:00,
2013-01-27 11:12:00,64.0,63.0,-100.00,SSW,208,0.0,0.0,95,0.00,,,0.05,0.000000,,2013-01-27 21:12:00,
2013-01-27 11:22:00,64.0,63.0,-100.00,SSW,208,0.0,0.0,95,0.00,,,0.05,0.000000,,2013-01-27 21:22:00,
2013-01-27 11:32:00,64.0,63.0,-100.00,SSW,208,0.0,0.0,95,0.00,,,0.05,0.000000,,2013-01-27 21:32:00,
2013-01-27 12:02:00,64.0,62.0,-100.00,South,181,0.0,0.0,94,0.00,,,0.05,0.000000,,2013-01-27 22:02:00,
2013-01-27 12:11:00,64.0,62.0,-100.00,South,181,0.0,0.0,94,0.00,,,0.05,0.000000,,2013-01-27 22:11:00,
2013-01-27 12:21:00,64.0,62.0,-100.00,South,181,0.0,0.0,94,0.00,,,0.05,0.000000,,2013-01-27 22:21:00,
2013-01-27 12:31:00,64.0,62.0,-100.00,South,181,0.0,0.0,94,0.00,,,0.05,0.000000,,2013-01-27 22:31:00,
2013-01-27 12:52:00,65.0,63.0,-100.00,South,186,0.0,0.0,94,0.00,,,0.05,0.000000,,2013-01-27 22:52:00,
2013-01-27 13:02:00,65.0,63.0,-100.00,South,186,0.0,0.0,94,0.00,,,0.05,0.000000,,2013-01-27 23:02:00,
2013-01-27 13:11:00,65.0,63.0,-100.00,South,186,0.0,0.0,94,0.00,,,0.05,0.000000,,2013-01-27 23:11:00,
2013-01-27 13:21:00,65.0,63.0,-100.00,South,186,0.0,0.0,94,0.00,,,0.05,0.000000,,2013-01-27 23:21:00,
2013-01-27 13:31:00,65.0,63.0,-100.00,South,186,0.0,0.0,94,0.00,,,0.05,0.000000,,2013-01-27 23:31:00,
2013-01-27 13:53:00,65.0,63.0,-100.00,SSW,203,0.0,0.0,93,0.00,,,0.05,0.000000,,2013-01-27 23:53:00,
2013-01-27 14:01:00,65.0,63.0,-100.00,SSW,203,0.0,0.0,93,0.00,,,0.05,0.000000,,2013-01-28 00:01:00,
2013-01-27 14:11:00,65.0,63.0,-100.00,SSW,203,0.0,0.0,93,0.00,,,0.05,0.000000,,2013-01-28 00:11:00,
2013-01-27 14:21:00,65.0,63.0,-100.00,SSW,203,0.0,0.0,93,0.00,,,0.05,0.000000,,2013-01-28 00:21:00,
2013-01-27 14:32:00,65.0,63.0,-100.00,SSW,203,0.0,0.0,93,0.00,,,0.05,0.000000,,2013-01-28 00:32:00,
2013-01-27 14:52:00,64.0,63.0,-100.00,SSW,194,0.0,0.0,97,0.01,,,0.06,0.000000,,2013-01-28 00:52:00,
2013-01-27 15:01:00,64.0,63.0,-100.00,SSW,194,0.0,0.0,97,0.01,,,0.06,0.000000,,2013-01-28 01:01:00,
2013-01-27 15:11:00,64.0,63.0,-100.00,SSW,194,0.0,0.0,97,0.01,,,0.06,0.000000,,2013-01-28 01:11:00,
2013-01-27 15:21:00,64.0,63.0,-100.00,SSW,194,0.0,0.0,97,0.01,,,0.06,0.000000,,2013-01-28 01:21:00,
2013-01-27 15:32:00,64.0,63.0,-100.00,SSW,194,0.0,0.0,97,0.01,,,0.06,0.000000,,2013-01-28 01:32:00,
2013-01-27 16:02:00,64.0,63.0,-100.00,SSW,205,0.0,0.0,97,0.10,,,0.15,0.000000,,2013-01-28 02:02:00,
2013-01-27 16:11:00,64.0,63.0,-100.00,SSW,205,0.0,0.0,97,0.10,,,0.15,0.000000,,2013-01-28 02:11:00,
2013-01-27 16:21:00,64.0,63.0,-100.00,SSW,205,0.0,0.0,97,0.10,,,0.15,0.000000,,2013-01-28 02:21:00,
2013-01-27 16:32:00,64.0,63.0,-100.00,SSW,205,0.0,0.0,97,0.10,,,0.15,0.000000,,2013-01-28 02:32:00,
2013-01-27 17:02:00,63.0,62.0,-100.00,WSW,253,0.0,0.0,98,0.36,,,0.50,0.000000,,2013-01-28 03:02:00,
2013-01-27 17:11:00,63.0,62.0,-100.00,WSW,253,0.0,0.0,98,0.36,,,0.50,0.000000,,2013-01-28 03:11:00,
2013-01-27 17:21:00,63.0,62.0,-100.00,WSW,253,0.0,0.0,98,0.36,,,0.50,0.000000,,2013-01-28 03:21:00,
2013-01-27 17:32:00,63.0,62.0,-100.00,WSW,253,0.0,0.0,98,0.36,,,0.50,0.000000,,2013-01-28 03:32:00,
2013-01-27 18:01:00,63.0,63.0,-100.00,SSW,201,0.0,0.0,99,0.17,,,-99.99,0.000000,,2013-01-28 04:01:00,
2013-01-27 18:11:00,63.0,63.0,-100.00,SSW,201,0.0,0.0,99,0.17,,,-99.99,0.000000,,2013-01-28 04:11:00,
2013-01-27 18:21:00,63.0,63.0,-100.00,SSW,201,0.0,0.0,99,0.17,,,-99.99,0.000000,,2013-01-28 04:21:00,
2013-01-27 18:31:00,63.0,63.0,-100.00,SSW,201,0.0,0.0,99,0.17,,,-99.99,0.000000,,2013-01-28 04:31:00,
2013-01-27 18:52:00,63.0,63.0,-100.00,WSW,256,0.0,0.0,99,0.03,,,0.69,0.000000,,2013-01-28 04:52:00,
2013-01-27 19:03:00,63.0,63.0,-100.00,WSW,256,0.0,0.0,99,0.03,,,0.69,0.000000,,2013-01-28 05:03:00,
2013-01-27 19:11:00,63.0,63.0,-100.00,WSW,256,0.0,0.0,99,0.03,,,0.69,0.000000,,2013-01-28 05:11:00,
2013-01-27 19:21:00,63.0,63.0,-100.00,WSW,256,0.0,0.0,99,0.03,,,0.69,0.000000,,2013-01-28 05:21:00,
2013-01-27 19:31:00,63.0,63.0,-100.00,WSW,256,0.0,0.0,99,0.03,,,0.69,0.000000,,2013-01-28 05:31:00,
2013-01-27 20:02:00,60.0,60.0,-100.00,NE,47,0.0,0.0,99,0.07,,,0.76,0.000000,,2013-01-28 06:02:00,
2013-01-27 20:11:00,60.0,60.0,-100.00,NE,47,0.0,0.0,99,0.07,,,0.76,0.000000,,2013-01-28 06:11:00,
2013-01-27 20:21:00,60.0,60.0,-100.00,NE,47,0.0,0.0,99,0.07,,,0.76,0.000000,,2013-01-28 06:21:00,
2013-01-27 20:31:00,60.0,60.0,-100.00,NE,47,0.0,0.0,99,0.07,,,0.76,0.000000,,2013-01-28 06:31:00,
2013-01-27 21:02:00,58.0,58.0,-100.00,SSE,156,0.0,0.0,99,0.75,,,1.51,0.000000,,2013-01-28 07:02:00,
2013-01-27 21:11:00,58.0,58.0,-100.00,SSE,156,0.0,0.0,99,0.75,,,1.51,0.000000,,2013-01-28 07:11:00,
2013-01-27 21:21:00,58.0,58.0,-100.00,SSE,156,0.0,0.0,99,0.75,,,1.51,0.000000,,2013-01-28 07:21:00,
2013-01-27 21:31:00,58.0,58.0,-100.00,SSE,156,0.0,0.0,99,0.75,,,1.51,0.000000,,2013-01-28 07:31:00,
2013-01-27 21:52:00,57.0,57.0,-100.00,SE,136,0.0,0.0,99,0.50,,,2.01,0.000000,,2013-01-28 07:52:00,
2013-01-27 22:01:00,57.0,57.0,-100.00,SE,136,0.0,0.0,99,0.50,,,2.01,0.000000,,2013-01-28 08:01:00,
2013-01-27 22:11:00,57.0,57.0,-100.00,SE,136,0.0,0.0,99,0.50,,,2.01,0.000000,,2013-01-28 08:11:00,
2013-01-27 22:21:00,57.0,57.0,-100.00,SE,136,0.0,0.0,99,0.50,,,2.01,0.000000,,2013-01-28 08:21:00,
2013-01-27 22:31:00,57.0,57.0,-100.00,SE,136,0.0,0.0,99,0.50,,,2.01,0.000000,,2013-01-28 08:31:00,
2013-01-27 23:02:00,58.0,58.0,-100.00,East,99,0.0,0.0,99,0.29,,,2.30,0.000000,,2013-01-28 09:02:00,
2013-01-27 23:11:00,58.0,58.0,-100.00,East,99,0.0,0.0,99,0.29,,,2.30,0.000000,,2013-01-28 09:11:00,
2013-01-27 23:21:00,58.0,58.0,-100.00,East,99,0.0,0.0,99,0.29,,,2.30,0.000000,,2013-01-28 09:21:00,
2013-01-27 23:31:00,58.0,58.0,-100.00,East,99,0.0,0.0,99,0.29,,,2.30,0.000000,,2013-01-28 09:31:00,
2013-01-27 23:52:00,57.0,57.0,-100.00,ESE,114,0.0,0.0,99,0.12,,,2.42,0.000000,,2013-01-28 09:52:00,